Weather History for KDPA - May, 2013

Change the Weather History Date:

Saturday, May 18, 2013

  Actual Average Record
Temperature  
Mean Temperature 66 °F 60 °F  
Max Temperature 79 °F 72 °F 89 °F (1998)
Min Temperature 52 °F 48 °F 30 °F (2002)
Degree Days  
Heating Degree Days 0 6  
Month to date heating degree days 128 153  
Since 1 July heating degree days 6466 6219  
Cooling Degree Days 1 1  
Month to date cooling degree days 20 13  
Year to date cooling degree days 27 17  
Growing Degree Days 15 (Base 50)    
Moisture  
Dew Point 57 °F    
Average Humidity 72    
Maximum Humidity 89    
Minimum Humidity 54    
Precipitation  
Precipitation 0.00 in 0.15 in 0.43 in (2004)
Month to date precipitation 1.01 2.68  
Year to date precipitation 14.28 11.12  
Sea Level Pressure  
Sea Level Pressure 30.01 in    
Wind  
Wind Speed 6 mph (SE)    
Max Wind Speed 13 mph    
Max Gust Speed 16 mph    
Visibility 9 miles    
Events      
T = Trace of Precipitation, MM = Missing Value Source: NWS Daily Summary

Daily Weather History Graph

Daily Weather History Graph

Search for Another Location

Airport or City:

Trip Planner

Search our weather history database for the weather conditions in past years. The results will help you decide how hot, cold, wet, or windy it might be!

Date:

Astronomy

May. 18, 2013 Rise Set
Actual Time 5:29 AM CDT 8:09 PM CDT
Civil Twilight 4:57 AM CDT 8:42 PM CDT
Nautical Twilight 4:17 AM CDT 9:22 PM CDT
Astronomical Twilight 3:31 AM CDT 10:08 PM CDT
Moon 1:06 PM CDT (5/18) 1:28 AM CDT (5/18)
Length of Visible Light 15h 44m
Length of Day
14h 40m
First Quarter, 55% of the Moon is Illuminated
May 18
First Quarter
May 24
Full
May 31
Last Quarter
Jun 8
New
Jun 16
First Quarter

Hourly Weather History & Observations

Time (CDT) Temp. Dew Point Humidity Pressure Visibility Wind Dir Wind Speed Gust Speed Precip Events Conditions
12:52 AM 55.9 °F 48.0 °F 75% 30.01 in 10.0 mi NE 3.5 mph - N/A   Clear
1:52 AM 53.1 °F 46.9 °F 80% 30.02 in 10.0 mi North 4.6 mph - N/A   Clear
2:52 AM 52.0 °F 48.0 °F 86% 30.02 in 10.0 mi Calm Calm - N/A   Clear
3:35 AM 51.8 °F 48.2 °F 88% 30.04 in 10.0 mi NNE 3.5 mph - N/A   Mostly Cloudy
3:43 AM 51.8 °F 48.2 °F 88% 30.04 in 10.0 mi NNE 4.6 mph - N/A   Overcast
3:52 AM 52.0 °F 48.9 °F 89% 30.04 in 10.0 mi Calm Calm - N/A   Overcast
4:52 AM 55.9 °F 52.0 °F 87% 30.06 in 10.0 mi Calm Calm - N/A   Overcast
5:52 AM 55.0 °F 50.0 °F 83% 30.05 in 8.0 mi Calm Calm - N/A   Scattered Clouds
6:52 AM 57.0 °F 53.1 °F 87% 30.05 in 7.0 mi East 3.5 mph - N/A   Clear
7:52 AM 64.0 °F 57.9 °F 80% 30.06 in 5.0 mi Calm Calm - N/A   Haze
8:52 AM 68.0 °F 62.1 °F 81% 30.05 in 7.0 mi SSE 8.1 mph - N/A   Clear
9:52 AM 72.0 °F 64.0 °F 76% 30.03 in 6.0 mi SSE 6.9 mph - N/A   Clear
10:52 AM 73.9 °F 63.0 °F 68% 30.03 in 7.0 mi SSE 9.2 mph - N/A   Scattered Clouds
11:07 AM 75.2 °F 62.6 °F 65% 30.03 in 7.0 mi SE 8.1 mph - N/A   Mostly Cloudy
11:35 AM 73.4 °F 62.6 °F 69% 30.04 in 7.0 mi Variable 4.6 mph - N/A   Mostly Cloudy
11:52 AM 75.0 °F 63.0 °F 66% 30.03 in 6.0 mi South 4.6 mph - N/A   Haze
12:52 PM 75.0 °F 62.1 °F 64% 30.01 in 8.0 mi SSE 8.1 mph - N/A   Mostly Cloudy
1:52 PM 75.9 °F 61.0 °F 60% 30.00 in 10.0 mi SSE 9.2 mph - N/A   Mostly Cloudy
2:52 PM 77.0 °F 63.0 °F 62% 29.99 in 9.0 mi South 9.2 mph - N/A   Scattered Clouds
3:52 PM 77.0 °F 61.0 °F 58% 29.97 in 10.0 mi SSE 10.4 mph - N/A   Mostly Cloudy
4:52 PM 79.0 °F 61.0 °F 54% 29.96 in 10.0 mi SSE 6.9 mph - N/A   Partly Cloudy
5:52 PM 78.1 °F 60.1 °F 54% 29.96 in 10.0 mi South 8.1 mph - N/A   Clear
6:52 PM 77.0 °F 61.0 °F 58% 29.95 in 10.0 mi South 9.2 mph - N/A   Mostly Cloudy
7:52 PM 75.9 °F 61.0 °F 60% 29.94 in 10.0 mi SE 9.2 mph - N/A   Overcast
8:52 PM 72.0 °F 59.0 °F 64% 29.95 in 10.0 mi ESE 6.9 mph - N/A   Clear
9:52 PM 68.0 °F 57.9 °F 70% 29.97 in 10.0 mi East 3.5 mph - N/A   Clear
10:52 PM 64.9 °F 57.0 °F 75% 29.96 in 8.0 mi East 5.8 mph - N/A   Clear
11:52 PM 64.0 °F 57.0 °F 78% 29.94 in 8.0 mi East 4.6 mph - N/A   Clear